Voltar ao catálogo

STARLINK-2106

AtivoComunicaçõesVLEO
NORAD 47386·PAYLOAD·🇺🇸 United States

Lançado Jan 20, 2021 de Cape Canaveral Space Force Station

Loading…

Próximas Passagens (próximas 24 horas)

TLE

AtualizadoSource: CelesTrak SupGP

Época: Sep 14, 2026, 21:09 UTC

1 47386C 21005AP  26257.88173611  .00038749  00000+0  12464-2 0  2579
2 47386  53.1572 236.9928 0001178  80.1956  69.3062 15.31675486    11

Acompanhe STARLINK-2106 em tempo real com AllMySat

Download on the App Store